Weather History for Szeged, Hungary

Change the Weather History Date:

Friday, August 2, 2013

  Actual Average (LRAR) Record (LRAR)
Temperature  
Mean Temperature 76 °F -  
Max Temperature 92 °F 81 °F 96 °F (1998)
Min Temperature 59 °F 57 °F 53 °F (2000)
Cooling Degree Days 10    
Growing Degree Days 26 (Base 50)    
Moisture  
Dew Point 59 °F    
Average Humidity 51    
Maximum Humidity 94    
Minimum Humidity 24    
Precipitation  
Precipitation 0.00 in 0.07 in - ()
Sea Level Pressure  
Sea Level Pressure 30.06 in    
Wind  
Wind Speed 3 mph ()    
Max Wind Speed 8 mph    
Max Gust Speed -    
Visibility 19.0 miles    
Events      
Averages and records for this station are not official NWS values.
T = Trace of Precipitation, MM = Missing Value Source: Averaged Metar Reports

Daily Weather History Graph

Daily Weather History Graph

Search for Another Location

Airport:

Trip Planner

Search our weather history database for the weather conditions in past years. The results will help you decide how hot, cold, wet, or windy it might be!

Date:

Astronomy

Aug. 02, 2013 Rise Set
Actual Time 5:22 AM CEST 8:08 PM CEST
Civil Twilight 4:47 AM CEST 8:43 PM CEST
Nautical Twilight 4:03 AM CEST 9:26 PM CEST
Astronomical Twilight 3:11 AM CEST 10:18 PM CEST
Moon 1:27 AM CEST (8/2) 4:54 PM CEST (8/2)
Length of Visible Light 15h 55m
Length of Day
14h 46m
Waning Crescent, 17% of the Moon is Illuminated
Aug 2
Waning Crescent
Aug 6
New
Aug 14
First Quarter
Aug 21
Full
Aug 28
Last Quarter

Hourly Weather History & Observations

Time (CEST) Temp. Heat Index Dew Point Humidity Pressure Visibility Wind Dir Wind Speed Gust Speed Precip Events Conditions
12:45 AM 71.6 °F - 57.2 °F 60% 30.09 in - East 5.8 mph - N/A   Clear
1:45 AM 68.0 °F - 57.2 °F 68% 30.09 in - South 2.3 mph - N/A   Clear
2:00 AM 67 °F - 58 °F 65% 30.09 in 19 mi South 2.2 mph - -   Partly Cloudy
2:45 AM 62.6 °F - 59.0 °F 88% 30.09 in - Calm Calm - N/A   Clear
3:45 AM 60.8 °F - 59.0 °F 94% 30.06 in - Calm Calm - N/A   Clear
4:45 AM 60.8 °F - 59.0 °F 94% 30.06 in - NNW 2.3 mph - N/A   Clear
5:45 AM 60.8 °F - 59.0 °F 94% 30.09 in - North 2.3 mph - N/A   Clear
6:15 AM 62.6 °F - 59.0 °F 88% 30.09 in - NNE 3.5 mph - N/A   Clear
6:45 AM 66.2 °F - 62.6 °F 88% 30.09 in - North 2.3 mph - N/A   Clear
7:15 AM 71.6 °F - 62.6 °F 73% 30.09 in - NNE 2.3 mph - N/A   Clear
7:45 AM 75.2 °F - 60.8 °F 61% 30.09 in - NE 2.3 mph - N/A   Clear
8:00 AM 76 °F - 60 °F 49% 30.08 in 19 mi NE 2.2 mph - -   Partly Cloudy
8:15 AM 78.8 °F - 59.0 °F 51% 30.09 in - East 2.3 mph - N/A   Clear
8:45 AM 80.6 °F 80.5 °F 55.4 °F 42% 30.09 in - East 4.6 mph - N/A   Clear
9:15 AM 82.4 °F 82.0 °F 57.2 °F 42% 30.09 in - East 3.5 mph - N/A   Clear
9:45 AM 84.2 °F 83.0 °F 55.4 °F 37% 30.09 in - ENE 2.3 mph - N/A   Clear
10:15 AM 86.0 °F 84.9 °F 57.2 °F 37% 30.09 in - SSE 2.3 mph - N/A   Clear
10:45 AM 86.0 °F 84.5 °F 55.4 °F 35% 30.09 in - ESE 2.3 mph - N/A   Clear
11:15 AM 87.8 °F 86.1 °F 55.4 °F 33% 30.09 in - NNE 3.5 mph - N/A   Clear
11:45 AM 87.8 °F 87.1 °F 59.0 °F 38% 30.09 in - SW 3.5 mph - N/A   Clear
12:15 PM 89.6 °F 88.9 °F 59.0 °F 36% 30.09 in - West 2.3 mph - N/A   Clear
12:45 PM 89.6 °F 88.1 °F 57.2 °F 33% 30.09 in - NNW 2.3 mph - N/A   Clear
1:15 PM 89.6 °F 88.9 °F 59.0 °F 36% 30.09 in - West 3.5 mph - N/A   Clear
1:45 PM 89.6 °F 88.1 °F 57.2 °F 33% 30.06 in - SW 3.5 mph - N/A   Clear
2:00 PM 90 °F - 58 °F 24% 30.06 in 31 mi SW 4.5 mph - -   Partly Cloudy
2:15 PM 91.4 °F 90.7 °F 59.0 °F 34% 30.06 in - West 4.6 mph - N/A   Clear
2:45 PM 91.4 °F 89.9 °F 57.2 °F 31% 30.06 in - West 6.9 mph - N/A   Clear
3:15 PM 91.4 °F 90.7 °F 59.0 °F 34% 30.04 in - South 4.6 mph - N/A   Clear
3:45 PM 91.4 °F 90.7 °F 59.0 °F 34% 30.04 in - SW 6.9 mph - N/A   Clear
4:15 PM 91.4 °F 90.7 °F 59.0 °F 34% 30.04 in - SSW 4.6 mph - N/A   Clear
4:45 PM 91.4 °F 90.7 °F 59.0 °F 34% 30.04 in - SW 8.1 mph - N/A   Clear
5:15 PM 91.4 °F 90.7 °F 59.0 °F 34% 30.04 in - SW 5.8 mph - N/A   Clear
5:45 PM 91.4 °F 90.7 °F 59.0 °F 34% 30.01 in - SSW 5.8 mph - N/A   Clear
6:15 PM 91.4 °F 90.7 °F 59.0 °F 34% 30.01 in - SW 5.8 mph - N/A   Clear
6:45 PM 89.6 °F 88.9 °F 59.0 °F 36% 30.01 in - SSW 5.8 mph - N/A   Clear
7:15 PM 87.8 °F 87.1 °F 59.0 °F 38% 30.01 in - SSW 5.8 mph - N/A   Clear
7:45 PM 84.2 °F 84.4 °F 60.8 °F 45% 30.01 in - SSW 5.8 mph - N/A   Clear
8:00 PM 84 °F - 60 °F 34% 30.00 in 31 mi SSW 4.5 mph - -   Partly Cloudy
8:15 PM 80.6 °F 81.5 °F 60.8 °F 51% 30.01 in - SSW 5.8 mph - N/A   Clear
8:45 PM 77.0 °F - 60.8 °F 57% 30.04 in - SSW 5.8 mph - N/A   Clear
9:15 PM 75.2 °F - 62.6 °F 65% 30.04 in - SSW 5.8 mph - N/A   Clear
9:45 PM 73.4 °F - 62.6 °F 69% 30.04 in - South 3.5 mph - N/A   Clear
10:45 PM 71.6 °F - 62.6 °F 73% 30.04 in - South 2.3 mph - N/A   Clear
11:45 PM 69.8 °F - 62.6 °F 78% 30.04 in - South 4.6 mph - N/A   Clear